RSCU652 YBUN-YXRP

Flight info

Callsign RSCU652
Flight time 0h 41m
Altitude 4000
Route PH
Aircraft AS50/L-SDE3/LB1D1

Departure

Time 2026-05-06 11:56
Airport Bunbury Airport (YBUN)

Arrival

Time 2026-05-06 12:37
Airport Royal Perth Hospital Helipad (YXRP)
Time Latitude Longitude Altitude Speed Heading
2026-05-06 11:48 -33.37602 115.67845 52 ft 0 kts 247°
2026-05-06 11:54 -33.37598 115.67851 59 ft 5 kts 105°
2026-05-06 11:55 -33.37641 115.67941 65 ft 11 kts 162°
2026-05-06 11:55 -33.37710 115.67894 141 ft 36 kts 232°
2026-05-06 11:55 -33.37903 115.67462 340 ft 75 kts 239°
2026-05-06 11:55 -33.38205 115.66830 450 ft 97 kts 226°
2026-05-06 11:56 -33.38814 115.66531 531 ft 99 kts 167°
2026-05-06 11:56 -33.39421 115.66884 689 ft 95 kts 152°
2026-05-06 11:56 -33.40040 115.67212 798 ft 100 kts 150°
2026-05-06 11:56 -33.40611 115.67682 886 ft 98 kts 130°
2026-05-06 11:57 -33.40897 115.68385 1001 ft 94 kts 98°
2026-05-06 11:57 -33.40756 115.69124 1138 ft 94 kts 65°
2026-05-06 11:57 -33.40204 115.69587 1255 ft 105 kts 27°
2026-05-06 11:57 -33.39457 115.69610 1396 ft 109 kts
2026-05-06 11:58 -33.38701 115.69586 1539 ft 108 kts 12°
2026-05-06 11:58 -33.37955 115.69603 1683 ft 107 kts 15°
2026-05-06 11:58 -33.37222 115.69661 1850 ft 104 kts 18°
2026-05-06 11:58 -33.36507 115.69735 1997 ft 104 kts 18°
2026-05-06 11:59 -33.35774 115.69814 2138 ft 106 kts 18°
2026-05-06 11:59 -33.35039 115.69896 2290 ft 106 kts 19°
2026-05-06 11:59 -33.34309 115.69978 2434 ft 105 kts 19°
2026-05-06 11:59 -33.33580 115.70061 2547 ft 105 kts 18°
2026-05-06 12:00 -33.32851 115.70145 2662 ft 106 kts 18°
2026-05-06 12:00 -33.32129 115.70228 2783 ft 105 kts 18°
2026-05-06 12:00 -33.31399 115.70312 2924 ft 105 kts 18°
2026-05-06 12:00 -33.30673 115.70397 3063 ft 105 kts 18°
2026-05-06 12:01 -33.29945 115.70482 3204 ft 105 kts 18°
2026-05-06 12:01 -33.29213 115.70567 3324 ft 106 kts 18°
2026-05-06 12:01 -33.28484 115.70651 3426 ft 105 kts 18°
2026-05-06 12:01 -33.27754 115.70736 3528 ft 105 kts 18°
2026-05-06 12:02 -33.27020 115.70822 3617 ft 106 kts 17°
2026-05-06 12:02 -33.26282 115.70907 3714 ft 106 kts 18°
2026-05-06 12:02 -33.25545 115.70993 3797 ft 107 kts 17°
2026-05-06 12:02 -33.24801 115.71079 3874 ft 108 kts 17°
2026-05-06 12:03 -33.24055 115.71166 3965 ft 108 kts 17°
2026-05-06 12:03 -33.23301 115.71256 4013 ft 112 kts 17°
2026-05-06 12:03 -33.22506 115.71352 4009 ft 116 kts 16°
2026-05-06 12:03 -33.21692 115.71446 4005 ft 118 kts 16°
2026-05-06 12:04 -33.20878 115.71539 4004 ft 117 kts 16°
2026-05-06 12:04 -33.20065 115.71632 4005 ft 117 kts 16°
2026-05-06 12:04 -33.19232 115.71711 4088 ft 125 kts 12°
2026-05-06 12:04 -33.18305 115.71768 4021 ft 140 kts 11°
2026-05-06 12:05 -33.17330 115.71846 3937 ft 140 kts 14°
2026-05-06 12:05 -33.16385 115.71951 3921 ft 133 kts 15°
2026-05-06 12:05 -33.15480 115.72061 3945 ft 129 kts 15°
2026-05-06 12:05 -33.14599 115.72169 3978 ft 127 kts 15°
2026-05-06 12:06 -33.13724 115.72276 3992 ft 126 kts 15°
2026-05-06 12:06 -33.12866 115.72387 3980 ft 121 kts 17°
2026-05-06 12:06 -33.12050 115.72496 3999 ft 117 kts 18°
2026-05-06 12:06 -33.11246 115.72614 4004 ft 116 kts 18°
2026-05-06 12:07 -33.10448 115.72723 4002 ft 115 kts 17°
2026-05-06 12:07 -33.09659 115.72823 4002 ft 114 kts 17°
2026-05-06 12:07 -33.08863 115.72921 4002 ft 115 kts 17°
2026-05-06 12:07 -33.08061 115.73017 4000 ft 116 kts 17°
2026-05-06 12:08 -33.07251 115.73111 4021 ft 120 kts 15°
2026-05-06 12:08 -33.06394 115.73210 3989 ft 127 kts 14°
2026-05-06 12:08 -33.05505 115.73302 3982 ft 129 kts 13°
2026-05-06 12:08 -33.04603 115.73381 3978 ft 130 kts 13°
2026-05-06 12:09 -33.03699 115.73463 3977 ft 130 kts 14°
2026-05-06 12:09 -33.02807 115.73554 3979 ft 131 kts 14°
2026-05-06 12:09 -33.01892 115.73650 3982 ft 130 kts 14°
2026-05-06 12:09 -33.00997 115.73749 3983 ft 129 kts 14°
2026-05-06 12:10 -33.00104 115.73851 3991 ft 129 kts 15°
2026-05-06 12:10 -32.99211 115.73955 3994 ft 129 kts 15°
2026-05-06 12:10 -32.98317 115.74059 3999 ft 129 kts 14°
2026-05-06 12:10 -32.97433 115.74161 3998 ft 130 kts 14°
2026-05-06 12:11 -32.96536 115.74265 3995 ft 130 kts 14°
2026-05-06 12:11 -32.95643 115.74368 3994 ft 129 kts 14°
2026-05-06 12:11 -32.94749 115.74472 3997 ft 130 kts 14°
2026-05-06 12:11 -32.93850 115.74576 3997 ft 131 kts 14°
2026-05-06 12:12 -32.92928 115.74665 4038 ft 136 kts 12°
2026-05-06 12:12 -32.91961 115.74757 4007 ft 142 kts 12°
2026-05-06 12:12 -32.90965 115.74859 3971 ft 144 kts 13°
2026-05-06 12:12 -32.89965 115.74966 3946 ft 145 kts 13°
2026-05-06 12:13 -32.88965 115.75076 3928 ft 144 kts 13°
2026-05-06 12:13 -32.87975 115.75188 3928 ft 142 kts 13°
2026-05-06 12:13 -32.86990 115.75282 3942 ft 142 kts 12°
2026-05-06 12:13 -32.86003 115.75360 3958 ft 142 kts 12°
2026-05-06 12:14 -32.85017 115.75442 3972 ft 142 kts 12°
2026-05-06 12:14 -32.84032 115.75532 3978 ft 142 kts 12°
2026-05-06 12:14 -32.83050 115.75630 3984 ft 142 kts 12°
2026-05-06 12:14 -32.82069 115.75734 3987 ft 141 kts 13°
2026-05-06 12:15 -32.81090 115.75841 3989 ft 142 kts 13°
2026-05-06 12:15 -32.80107 115.75952 3994 ft 141 kts 13°
2026-05-06 12:15 -32.79129 115.76063 3994 ft 141 kts 13°
2026-05-06 12:15 -32.78151 115.76175 3996 ft 141 kts 13°
2026-05-06 12:16 -32.77173 115.76288 3995 ft 141 kts 13°
2026-05-06 12:16 -32.76191 115.76400 3993 ft 142 kts 13°
2026-05-06 12:16 -32.75207 115.76516 3996 ft 142 kts 13°
2026-05-06 12:16 -32.74221 115.76629 3992 ft 143 kts 13°
2026-05-06 12:17 -32.73235 115.76741 3990 ft 142 kts 13°
2026-05-06 12:17 -32.72250 115.76853 3990 ft 142 kts 13°
2026-05-06 12:17 -32.71263 115.76965 3996 ft 143 kts 13°
2026-05-06 12:17 -32.70276 115.77075 3992 ft 142 kts 13°
2026-05-06 12:18 -32.69294 115.77187 3991 ft 142 kts 14°
2026-05-06 12:18 -32.68314 115.77299 3990 ft 141 kts 14°
2026-05-06 12:18 -32.67338 115.77411 3991 ft 141 kts 14°
2026-05-06 12:18 -32.66362 115.77522 3986 ft 141 kts 14°
2026-05-06 12:19 -32.65386 115.77635 3987 ft 141 kts 14°
2026-05-06 12:19 -32.64409 115.77747 3992 ft 141 kts 14°
2026-05-06 12:19 -32.63433 115.77859 3987 ft 141 kts 14°
2026-05-06 12:19 -32.62461 115.77970 3984 ft 140 kts 14°
2026-05-06 12:20 -32.61817 115.78045 3990 ft 141 kts 14°
2026-05-06 12:20 -32.60840 115.78158 3988 ft 141 kts 14°
2026-05-06 12:20 -32.59869 115.78268 3987 ft 140 kts 14°
2026-05-06 12:20 -32.58580 115.78414 3993 ft 141 kts 14°
2026-05-06 12:21 -32.57601 115.78526 3996 ft 142 kts 14°
2026-05-06 12:21 -32.56938 115.78602 3993 ft 141 kts 14°
2026-05-06 12:21 -32.55639 115.78750 3988 ft 142 kts 14°
2026-05-06 12:21 -32.54659 115.78861 3984 ft 141 kts 14°
2026-05-06 12:22 -32.53676 115.78972 3989 ft 142 kts 14°
2026-05-06 12:22 -32.53008 115.79049 3991 ft 143 kts 14°
2026-05-06 12:22 -32.52029 115.79161 3991 ft 143 kts 13°
2026-05-06 12:22 -32.51035 115.79274 3991 ft 144 kts 14°
2026-05-06 12:23 -32.50037 115.79388 3985 ft 143 kts 14°
2026-05-06 12:23 -32.49035 115.79501 3975 ft 142 kts 14°
2026-05-06 12:23 -32.48061 115.79609 3975 ft 142 kts 14°
2026-05-06 12:23 -32.47080 115.79720 3975 ft 141 kts 13°
2026-05-06 12:24 -32.46103 115.79848 3982 ft 141 kts 16°
2026-05-06 12:24 -32.45126 115.80010 3989 ft 142 kts 17°
2026-05-06 12:24 -32.44148 115.80162 3989 ft 141 kts 16°
2026-05-06 12:24 -32.43178 115.80296 3993 ft 140 kts 15°
2026-05-06 12:25 -32.42198 115.80423 4008 ft 143 kts 15°
2026-05-06 12:25 -32.41211 115.80543 4012 ft 142 kts 14°
2026-05-06 12:25 -32.40225 115.80656 4009 ft 142 kts 14°
2026-05-06 12:25 -32.39234 115.80768 4014 ft 144 kts 14°
2026-05-06 12:26 -32.38240 115.80880 4014 ft 143 kts 14°
2026-05-06 12:26 -32.37254 115.80990 4006 ft 142 kts 14°
2026-05-06 12:26 -32.36273 115.81099 3997 ft 142 kts 14°
2026-05-06 12:26 -32.35280 115.81215 4009 ft 144 kts 14°
2026-05-06 12:27 -32.34282 115.81329 4007 ft 144 kts 14°
2026-05-06 12:27 -32.33282 115.81445 4006 ft 145 kts 14°
2026-05-06 12:27 -32.32276 115.81560 4005 ft 145 kts 14°
2026-05-06 12:27 -32.31268 115.81674 4005 ft 146 kts 14°
2026-05-06 12:28 -32.30262 115.81787 3996 ft 145 kts 14°
2026-05-06 12:28 -32.29259 115.81899 3991 ft 145 kts 14°
2026-05-06 12:28 -32.28259 115.82012 3989 ft 144 kts 14°
2026-05-06 12:28 -32.27268 115.82123 3984 ft 143 kts 14°
2026-05-06 12:29 -32.26278 115.82236 3990 ft 142 kts 14°
2026-05-06 12:29 -32.25291 115.82348 3992 ft 142 kts 14°
2026-05-06 12:29 -32.24301 115.82463 3991 ft 143 kts 14°
2026-05-06 12:29 -32.23310 115.82579 3994 ft 143 kts 14°
2026-05-06 12:30 -32.22315 115.82693 3997 ft 144 kts 14°
2026-05-06 12:30 -32.21322 115.82805 3998 ft 143 kts 14°
2026-05-06 12:30 -32.20328 115.82915 3995 ft 144 kts 14°
2026-05-06 12:30 -32.19324 115.83030 3998 ft 146 kts 14°
2026-05-06 12:31 -32.18313 115.83147 4000 ft 146 kts 14°
2026-05-06 12:31 -32.17300 115.83263 3994 ft 147 kts 14°
2026-05-06 12:31 -32.16293 115.83373 3979 ft 144 kts 14°
2026-05-06 12:31 -32.15314 115.83479 3971 ft 142 kts 14°
2026-05-06 12:32 -32.14326 115.83590 3979 ft 142 kts 14°
2026-05-06 12:32 -32.13347 115.83700 3980 ft 141 kts 14°
2026-05-06 12:32 -32.12372 115.83810 3986 ft 141 kts 14°
2026-05-06 12:32 -32.11387 115.83924 4002 ft 143 kts 14°
2026-05-06 12:33 -32.10390 115.84040 4008 ft 145 kts 13°
2026-05-06 12:33 -32.09379 115.84149 4004 ft 146 kts 13°
2026-05-06 12:33 -32.08367 115.84264 3998 ft 146 kts 14°
2026-05-06 12:33 -32.07357 115.84382 3990 ft 146 kts 14°
2026-05-06 12:34 -32.06333 115.84467 3932 ft 151 kts
2026-05-06 12:34 -32.05272 115.84449 3807 ft 153 kts
2026-05-06 12:34 -32.04231 115.84452 3499 ft 146 kts 11°
2026-05-06 12:34 -32.03225 115.84469 3211 ft 142 kts 11°
2026-05-06 12:35 -32.02263 115.84471 2995 ft 137 kts 12°
2026-05-06 12:35 -32.01305 115.84533 2704 ft 138 kts 17°
2026-05-06 12:35 -32.00353 115.84698 2438 ft 137 kts 21°
2026-05-06 12:35 -31.99432 115.84947 2199 ft 131 kts 26°
2026-05-06 12:36 -31.98622 115.85318 1981 ft 122 kts 38°
2026-05-06 12:36 -31.97860 115.85771 1714 ft 125 kts 31°
2026-05-06 12:36 -31.97082 115.86191 1376 ft 120 kts 44°
2026-05-06 12:36 -31.96489 115.86807 1092 ft 109 kts 56°
2026-05-06 12:37 -31.95930 115.87373 767 ft 101 kts 20°
2026-05-06 12:37 -31.95392 115.87281 698 ft 68 kts 281°
2026-05-06 12:37 -31.95350 115.86992 458 ft 28 kts 273°
2026-05-06 12:37 -31.95337 115.86786 209 ft 14 kts 264°
2026-05-06 12:38 -31.95331 115.86765 174 ft 3 kts 249°
2026-05-06 12:38 -31.95331 115.86742 178 ft 1 kts 248°
2026-05-06 12:38 -31.95334 115.86732 166 ft 1 kts 248°
2026-05-06 12:38 -31.95337 115.86727 153 ft 0 kts 250°